FW0153 Weather Reports


time (UTC)temp
C
wind
direction
speed
KPH
gust
KPH
rain 1hr
cm
rain 24hr
cm
rain mn
cm
humidity
%
barometer
mb
20260903111505 26 97 14.5 0.0 0.00 0.00 0.00 83 1010.6
20260903111005 26 90 14.5 0.0 0.00 0.00 0.00 83 1010.6
20260903110505 26 160 6.4 0.0 0.00 0.00 0.00 83 1010.3
20260903110005 26 131 14.5 0.0 0.00 0.00 0.00 83 1010.6
20260903105505 26 82 6.4 0.0 0.00 0.00 0.00 83 1010.6
20260903105005 26 145 6.4 0.0 0.00 0.00 0.00 83 1010.6
20260903104505 26 122 6.4 0.0 0.00 0.00 0.00 83 1010.6
20260903104005 26 142 6.4 0.0 0.00 0.00 0.00 83 1010.6
20260903103505 26 159 6.4 0.0 0.00 0.00 0.00 83 1010.6
20260903103005 26 121 0.0 0.0 0.00 0.00 0.00 83 1010.3
20260903102713 26 142 14.5 0.0 0.00 0.00 0.00 83 1010.6
20260903102005 26 168 0.0 0.0 0.00 0.00 0.00 83 1010.6
20260903101505 26 91 20.9 0.0 0.00 0.00 0.00 83 1010.6
20260903101005 26 173 29.0 0.0 0.00 0.00 0.00 83 1010.3
20260903100505 26 150 0.0 0.0 0.00 0.00 0.00 83 1010.6
20260903100005 26 159 14.5 0.0 0.00 0.00 0.00 83 1010.6
20260903095505 26 166 14.5 0.0 0.00 0.00 0.00 83 1010.6
20260903095213 26 180 14.5 0.0 0.00 0.00 0.00 83 1011.0
20260903094712 26 62 6.4 0.0 0.00 0.00 0.00 82 1010.6
20260903094005 26 156 20.9 0.0 0.00 0.00 0.00 82 1010.6
20260903093504 26 158 37.0 0.0 0.00 0.00 0.00 82 1010.6
20260903093005 26 186 37.0 0.0 0.00 0.00 0.00 82 1010.6
20260903092505 26 162 14.5 0.0 0.00 0.00 0.00 82 1011.0
20260903092005 26 141 6.4 0.0 0.00 0.00 0.00 82 1010.6
20260903091505 26 160 14.5 0.0 0.00 0.00 0.00 82 1010.6
20260903091213 26 159 37.0 0.0 0.00 0.00 0.00 82 1011.0
20260903090505 26 26 6.4 0.0 0.00 0.00 0.00 82 1011.0
20260903090005 26 160 29.0 0.0 0.00 0.00 0.00 81 1011.0
20260903085505 26 70 20.9 0.0 0.00 0.00 0.00 81 1011.0
20260903085005 26 127 29.0 0.0 0.00 0.00 0.00 81 1011.0
20260903084712 26 207 29.0 0.0 0.00 0.00 0.00 81 1011.0
20260903084005 26 62 20.9 0.0 0.00 0.00 0.00 81 1011.0
20260903083505 26 152 29.0 0.0 0.00 0.00 0.00 81 1011.0
20260903083005 26 163 29.0 0.0 0.00 0.00 0.00 81 1011.0
20260903082504 26 148 20.9 0.0 0.00 0.00 0.00 80 1011.3
20260903082213 26 153 14.5 0.0 0.00 0.00 0.00 80 1011.0
20260903081505 26 170 88.5 0.0 0.00 0.00 0.00 80 1011.0
20260903081004 26 152 29.0 0.0 0.00 0.00 0.00 80 1011.3
20260903080505 26 59 14.5 0.0 0.00 0.00 0.00 80 1011.3
20260903080005 26 150 14.5 0.0 0.00 0.00 0.00 80 1011.3
20260903075505 26 139 20.9 0.0 0.00 0.00 0.00 80 1011.3
20260903075005 26 147 20.9 0.0 0.00 0.00 0.00 79 1011.3
20260903074505 26 179 14.5 0.0 0.00 0.00 0.00 79 1011.3
20260903074005 26 167 6.4 0.0 0.00 0.00 0.00 79 1011.3
20260903073505 26 141 6.4 0.0 0.00 0.00 0.00 79 1011.3
20260903073005 26 52 6.4 0.0 0.00 0.00 0.00 79 1011.3
20260903072711 26 164 29.0 0.0 0.00 0.00 0.00 79 1011.6
20260903072005 26 119 14.5 0.0 0.00 0.00 0.00 79 1011.3
20260903071505 26 150 20.9 0.0 0.00 0.00 0.00 79 1011.3
20260903071005 26 9 14.5 0.0 0.00 0.00 0.00 79 1011.0
20260903070505 26 62 6.4 0.0 0.00 0.00 0.00 80 1011.0
20260903070005 26 100 6.4 0.0 0.00 0.00 0.00 80 1011.3
20260903065505 26 123 6.4 0.0 0.00 0.00 0.00 80 1011.6
20260903065004 26 77 14.5 0.0 0.00 0.00 0.00 79 1011.3
20260903064505 26 82 20.9 0.0 0.00 0.00 0.00 79 1011.6
20260903064005 26 100 14.5 0.0 0.00 0.00 0.00 79 1011.3
20260903063505 26 160 20.9 0.0 0.00 0.00 0.00 79 1011.6
20260903063005 26 29 20.9 0.0 0.00 0.00 0.00 79 1011.3
20260903062713 26 61 6.4 0.0 0.00 0.00 0.00 78 1011.3
20260903062005 26 106 29.0 0.0 0.00 0.00 0.00 78 1011.3
20260903061713 26 149 14.5 0.0 0.00 0.00 0.00 78 1011.3
20260903061005 26 187 14.5 0.0 0.00 0.00 0.00 78 1011.3
20260903060505 26 143 20.9 0.0 0.00 0.00 0.00 77 1011.3
20260903060005 26 182 14.5 0.0 0.00 0.00 0.00 77 1011.6
20260903055505 26 23 20.9 0.0 0.00 0.00 0.00 77 1011.3
20260903055004 26 61 14.5 0.0 0.00 0.00 0.00 77 1011.6
20260903054505 26 139 14.5 0.0 0.00 0.00 0.00 77 1011.6
20260903054212 26 133 29.0 0.0 0.00 0.00 0.00 77 1011.6
20260903053505 26 274 20.9 0.0 0.00 0.00 0.00 77 1011.6
20260903053005 26 89 14.5 0.0 0.00 0.00 0.00 77 1011.6
20260903052505 26 80 29.0 0.0 0.00 0.00 0.00 77 1011.6
20260903052005 26 83 14.5 0.0 0.00 0.00 0.00 77 1011.6
20260903051505 26 141 6.4 0.0 0.00 0.00 0.00 77 1012.0
20260903051005 27 44 6.4 0.0 0.00 0.00 0.00 77 1011.6
20260903050505 27 156 20.9 0.0 0.00 0.00 0.00 77 1011.6
20260903045526 27 39 14.5 0.0 0.00 0.00 0.00 77 1011.6
20260903045236 27 106 20.9 0.0 0.00 0.00 0.00 77 1011.6
20260903044739 27 103 20.9 0.0 0.00 0.00 0.00 77 1011.6
20260903044008 27 165 6.4 0.0 0.00 0.00 0.00 77 1011.6
20260903043507 27 320 20.9 0.0 0.00 0.00 0.00 77 1011.6
20260903043014 27 79 14.5 0.0 0.00 0.00 0.00 77 1012.0
20260903042517 27 70 14.5 0.0 0.00 0.00 0.00 77 1012.0
20260903042228 27 40 6.4 0.0 0.00 0.00 0.00 77 1011.6
20260903041731 27 7 6.4 0.0 0.00 0.00 0.00 78 1012.0
20260903041234 27 123 6.4 0.0 0.00 0.00 0.00 78 1012.0
20260903040527 27 74 14.5 0.0 0.00 0.00 0.00 78 1012.0
20260903040032 27 102 14.5 0.0 0.00 0.00 0.00 78 1012.0
20260903035714 27 143 6.4 0.0 0.00 0.00 0.00 78 1012.0
20260903035010 27 48 20.9 0.0 0.00 0.00 0.00 78 1012.0
20260903034720 27 127 14.5 0.0 0.00 0.00 0.00 77 1011.6
20260903034017 27 49 29.0 0.0 0.00 0.00 0.00 77 1011.6
20260903033519 27 91 20.9 0.0 0.00 0.00 0.00 76 1011.6
20260903033023 27 71 6.4 0.0 0.00 0.00 0.00 76 1011.6
20260903032526 27 66 14.5 0.0 0.00 0.00 0.00 76 1011.6
20260903032029 27 104 6.4 0.0 0.00 0.00 0.00 75 1011.6
20260903031532 27 115 14.5 0.0 0.00 0.00 0.00 75 1011.6
20260903031007 27 111 20.9 0.0 0.00 0.00 0.00 75 1011.6
20260903030718 27 72 6.4 0.0 0.00 0.00 0.00 75 1011.3
20260903030013 27 201 14.5 0.0 0.00 0.00 0.00 74 1011.3
20260903025724 27 31 6.4 0.0 0.00 0.00 0.00 74 1011.3
20260903025019 27 180 20.9 0.0 0.00 0.00 0.00 73 1011.0
20260903024522 27 80 29.0 0.0 0.00 0.00 0.00 73 1011.3
20260903024233 27 113 29.0 0.0 0.00 0.00 0.00 72 1010.6
20260903023528 27 129 20.9 0.0 0.00 0.00 0.00 72 1011.0
20260903023031 27 88 29.0 0.0 0.00 0.00 0.00 72 1010.6
20260903022507 28 347 20.9 0.0 0.00 0.00 0.00 72 1010.6
20260903022010 28 76 29.0 0.0 0.00 0.00 0.00 72 1010.6
20260903021513 28 86 14.5 0.0 0.00 0.00 0.00 71 1010.6
20260903021016 28 347 14.5 0.0 0.00 0.00 0.00 70 1010.3
20260903020520 28 13 20.9 0.0 0.00 0.00 0.00 70 1009.9
20260903020022 28 112 20.9 0.0 0.00 0.00 0.00 69 1009.9
20260903015525 28 75 20.9 0.0 0.00 0.00 0.00 68 1010.3
20260903015029 28 94 14.5 0.0 0.00 0.00 0.00 67 1009.9
20260903014531 28 86 29.0 0.0 0.00 0.00 0.00 66 1009.6
20260903014007 28 76 6.4 0.0 0.00 0.00 0.00 65 1009.6
20260903013510 28 80 37.0 0.0 0.00 0.00 0.00 64 1009.6
20260903013013 29 70 20.9 0.0 0.00 0.00 0.00 62 1009.6
20260903012516 29 64 6.4 0.0 0.00 0.00 0.00 61 1009.3
20260903012019 29 47 20.9 0.0 0.00 0.00 0.00 61 1009.6
20260903011523 29 145 20.9 0.0 0.00 0.00 0.00 60 1009.3
20260903011025 29 126 14.5 0.0 0.00 0.00 0.00 59 1009.6
20260903010528 30 49 20.9 0.0 0.00 0.00 0.00 58 1008.9
20260903010032 30 122 20.9 0.0 0.00 0.00 0.00 57 1008.9
20260903005507 30 235 20.9 0.0 0.00 0.00 0.00 56 1009.3
20260903005011 30 358 20.9 0.0 0.00 0.00 0.00 55 1008.9
20260903004513 30 170 20.9 0.0 0.00 0.00 0.00 53 1008.9
20260903004016 30 98 29.0 0.0 0.00 0.00 0.00 51 1008.6
20260903003519 30 132 37.0 0.0 0.00 0.00 0.00 49 1008.9
20260903003022 30 4 37.0 0.0 0.00 0.00 0.00 49 1008.9
20260903002525 31 85 20.9 0.0 0.00 0.00 0.00 49 1008.9
20260903002028 31 98 37.0 0.0 0.00 0.00 0.00 47 1008.9
20260903001531 31 117 20.9 0.0 0.00 0.00 0.00 45 1008.9
20260903001007 31 118 6.4 0.0 0.00 0.00 0.00 44 1008.6
20260903000510 31 84 6.4 0.0 0.00 0.00 0.00 44 1008.6
20260903000013 31 49 0.0 0.0 0.00 0.00 0.00 45 1008.9
20260902235516 31 108 6.4 0.0 0.00 0.00 0.00 46 1008.6
20260902235019 31 115 43.5 0.0 0.00 0.00 0.00 46 1008.6
20260902234522 31 150 6.4 0.0 0.00 0.00 0.00 46 1008.6
20260902234025 31 135 29.0 0.0 0.00 0.00 0.00 45 1008.6
20260902233528 31 49 29.0 0.0 0.00 0.00 0.00 45 1008.6
20260902233031 31 142 20.9 0.0 0.00 0.00 0.00 45 1008.6
20260902232507 32 102 29.0 0.0 0.00 0.00 0.00 44 1008.6
20260902232010 32 29 14.5 0.0 0.00 0.00 0.00 44 1008.6
20260902231720 32 96 43.5 0.0 0.00 0.00 0.00 43 1008.6
20260902231016 32 62 37.0 0.0 0.00 0.00 0.00 44 1008.6
20260902230519 33 64 14.5 0.0 0.00 0.00 0.00 42 1008.6
20260902230022 32 185 20.9 0.0 0.00 0.00 0.00 42 1008.6
20260902225733 33 86 20.9 0.0 0.00 0.00 0.00 41 1008.6
20260902225236 33 79 37.0 0.0 0.00 0.00 0.00 39 1008.6
20260902224531 33 58 29.0 0.0 0.00 0.00 0.00 36 1008.6
20260902224007 33 84 14.5 0.0 0.00 0.00 0.00 34 1008.6
20260902223510 33 80 20.9 0.0 0.00 0.00 0.00 34 1008.2
20260902223013 33 206 14.5 0.0 0.00 0.00 0.00 33 1008.6
20260902222516 33 73 37.0 0.0 0.00 0.00 0.00 33 1008.6
20260902222019 33 57 14.5 0.0 0.00 0.00 0.00 33 1008.6
20260902221522 34 67 14.5 0.0 0.00 0.00 0.00 33 1008.6
20260902221025 33 108 20.9 0.0 0.00 0.00 0.00 33 1008.6
20260902220528 34 153 20.9 0.0 0.00 0.00 0.00 33 1008.6
20260902220031 33 104 20.9 0.0 0.00 0.00 0.00 34 1008.2
20260902215507 34 78 20.9 0.0 0.00 0.00 0.00 34 1008.6
20260902215010 34 55 14.5 0.0 0.00 0.00 0.00 34 1008.6
20260902214720 34 92 37.0 0.0 0.00 0.00 0.00 33 1008.6
20260902214016 34 167 20.9 0.0 0.00 0.00 0.00 33 1008.2
20260902213726 34 84 20.9 0.0 0.00 0.00 0.00 32 1008.6
20260902213022 34 111 14.5 0.0 0.00 0.00 0.00 32 1008.6
20260902212525 34 18 29.0 0.0 0.00 0.00 0.00 33 1008.6
20260902212028 35 154 14.5 0.0 0.00 0.00 0.00 34 1008.6
20260902211531 35 117 29.0 0.0 0.00 0.00 0.00 34 1008.9
20260902211007 34 55 37.0 0.0 0.00 0.00 0.00 35 1008.9
20260902210510 35 146 14.5 0.0 0.00 0.00 0.00 35 1008.9
20260902210013 35 1 20.9 0.0 0.00 0.00 0.00 35 1008.9
20260902205724 35 191 29.0 0.0 0.00 0.00 0.00 34 1008.9
20260902205019 34 108 6.4 0.0 0.00 0.00 0.00 35 1008.9
20260902204522 35 61 20.9 0.0 0.00 0.00 0.00 35 1009.3
20260902204025 35 90 6.4 0.0 0.00 0.00 0.00 37 1009.3
20260902203510 34 139 14.5 0.0 0.00 0.00 0.00 37 1009.3
20260902203031 35 354 29.0 0.0 0.00 0.00 0.00 35 1009.3
20260902202507 35 323 14.5 0.0 0.00 0.00 0.00 36 1009.3
20260902202218 35 154 20.9 0.0 0.00 0.00 0.00 37 1009.6
20260902201513 35 171 20.9 0.0 0.00 0.00 0.00 36 1009.6
20260902201016 35 142 14.5 0.0 0.00 0.00 0.00 37 1009.6
20260902200727 35 136 6.4 0.0 0.00 0.00 0.00 36 1009.6
20260902200022 35 177 14.5 0.0 0.00 0.00 0.00 37 1009.9
20260902195525 35 230 6.4 0.0 0.00 0.00 0.00 38 1009.9
20260902195236 35 154 20.9 0.0 0.00 0.00 0.00 36 1009.9
20260902194531 34 41 29.0 0.0 0.00 0.00 0.00 36 1009.9
20260902194214 34 23 20.9 0.0 0.00 0.00 0.00 38 1010.3
20260902193510 33 163 29.0 0.0 0.00 0.00 0.00 38 1010.3
20260902193013 34 110 14.5 0.0 0.00 0.00 0.00 37 1010.3
20260902192723 35 137 6.4 0.0 0.00 0.00 0.00 36 1010.3
20260902192019 35 160 14.5 0.0 0.00 0.00 0.00 37 1010.3
20260902191522 34 111 6.4 0.0 0.00 0.00 0.00 37 1010.3
20260902191025 34 53 20.9 0.0 0.00 0.00 0.00 38 1010.6
20260902190735 34 201 6.4 0.0 0.00 0.00 0.00 38 1011.0
20260902190031 33 139 6.4 0.0 0.00 0.00 0.00 40 1011.0
20260902185507 33 92 29.0 0.0 0.00 0.00 0.00 39 1011.0
20260902185010 34 126 6.4 0.0 0.00 0.00 0.00 40 1011.0
20260902184513 33 100 14.5 0.0 0.00 0.00 0.00 42 1011.3
20260902184016 33 68 14.5 0.0 0.00 0.00 0.00 41 1011.3
20260902183519 33 146 37.0 0.0 0.00 0.00 0.00 41 1011.3
20260902183022 33 150 14.5 0.0 0.00 0.00 0.00 43 1011.3
20260902182733 33 88 20.9 0.0 0.00 0.00 0.00 40 1011.3
20260902182028 33 20 14.5 0.0 0.00 0.00 0.00 42 1011.3
20260902181531 33 37 14.5 0.0 0.00 0.00 0.00 43 1011.6
20260902181215 33 158 6.4 0.0 0.00 0.00 0.00 42 1011.6
20260902180507 33 131 29.0 0.0 0.00 0.00 0.00 41 1011.6
20260902180013 33 150 6.4 0.0 0.00 0.00 0.00 44 1012.0
20260902175505 32 156 20.9 0.0 0.00 0.00 0.00 42 1012.0
20260902175005 33 33 20.9 0.0 0.00 0.00 0.00 43 1012.0
20260902174505 33 99 20.9 0.0 0.00 0.00 0.00 44 1012.3
20260902174005 32 154 37.0 0.0 0.00 0.00 0.00 45 1012.3
20260902173712 32 53 14.5 0.0 0.00 0.00 0.00 44 1012.3
20260902173005 32 79 20.9 0.0 0.00 0.00 0.00 45 1012.3
20260902172505 32 164 43.5 0.0 0.00 0.00 0.00 45 1012.3
20260902172005 32 163 6.4 0.0 0.00 0.00 0.00 47 1012.3
20260902171505 32 94 29.0 0.0 0.00 0.00 0.00 47 1012.3
20260902171005 32 238 6.4 0.0 0.00 0.00 0.00 48 1012.3
20260902170712 31 105 37.0 0.0 0.00 0.00 0.00 49 1012.7
20260902170005 31 157 37.0 0.0 0.00 0.00 0.00 49 1012.7
20260902165712 31 154 14.5 0.0 0.00 0.00 0.00 51 1012.7
20260902165005 32 172 6.4 0.0 0.00 0.00 0.00 49 1012.7
20260902164505 31 105 20.9 0.0 0.00 0.00 0.00 52 1013.0
20260902164005 31 159 29.0 0.0 0.00 0.00 0.00 52 1013.0
20260902163504 31 212 20.9 0.0 0.00 0.00 0.00 52 1013.0
20260902163005 31 139 20.9 0.0 0.00 0.00 0.00 54 1013.0
20260902162712 31 111 14.5 0.0 0.00 0.00 0.00 56 1013.3
20260902162005 31 122 20.9 0.0 0.00 0.00 0.00 55 1013.0
20260902161505 31 154 20.9 0.0 0.00 0.00 0.00 54 1013.0
20260902161005 31 215 20.9 0.0 0.00 0.00 0.00 55 1013.3
20260902160505 30 161 20.9 0.0 0.00 0.00 0.00 58 1013.3
20260902160007 30 171 37.0 0.0 0.00 0.00 0.00 58 1013.0
20260902155505 30 72 51.5 0.0 0.00 0.00 0.00 57 1013.3
20260902155005 30 119 29.0 0.0 0.00 0.00 0.00 58 1013.3
20260902154505 30 139 6.4 0.0 0.00 0.00 0.00 60 1013.0
20260902154004 30 158 20.9 0.0 0.00 0.00 0.00 60 1013.3
20260902153505 30 125 6.4 0.0 0.00 0.00 0.00 62 1013.0
20260902153005 29 148 43.5 0.0 0.00 0.00 0.00 63 1013.3
20260902152505 28 103 20.9 0.0 0.00 0.00 0.00 64 1013.0
20260902152005 28 176 14.5 0.0 0.00 0.00 0.00 65 1013.0
20260902151711 28 92 20.9 0.0 0.00 0.00 0.00 66 1013.3
20260902151005 28 127 6.4 0.0 0.00 0.00 0.00 67 1013.3
20260902150505 28 197 29.0 0.0 0.00 0.00 0.00 67 1013.0
20260902150005 28 42 37.0 0.0 0.00 0.00 0.00 68 1013.0
20260902145505 28 141 29.0 0.0 0.00 0.00 0.00 69 1013.3
20260902145005 28 166 29.0 0.0 0.00 0.00 0.00 69 1013.3
20260902144504 28 156 14.5 0.0 0.00 0.00 0.00 71 1013.0
20260902144005 28 155 51.5 0.0 0.00 0.00 0.00 71 1013.0
20260902143505 27 134 14.5 0.0 0.00 0.00 0.00 74 1013.3
20260902143005 27 57 6.4 0.0 0.00 0.00 0.00 75 1013.0
20260902142713 27 170 20.9 0.0 0.00 0.00 0.00 75 1013.0
20260902142212 27 162 6.4 0.0 0.00 0.00 0.00 76 1013.3
20260902141505 27 165 14.5 0.0 0.00 0.00 0.00 76 1013.3
20260902141212 27 192 29.0 0.0 0.00 0.00 0.00 76 1013.3
20260902140505 27 164 20.9 0.0 0.00 0.00 0.00 77 1013.0
20260902140212 27 168 20.9 0.0 0.00 0.00 0.00 78 1013.3
20260902135713 26 158 20.9 0.0 0.00 0.00 0.00 80 1013.3
20260902135005 26 194 20.9 0.0 0.00 0.00 0.00 80 1013.0
20260902134505 26 167 20.9 0.0 0.00 0.00 0.00 81 1013.3
20260902134005 26 54 20.9 0.0 0.00 0.00 0.00 81 1013.0
20260902133505 26 114 6.4 0.0 0.00 0.00 0.00 82 1013.0
20260902133005 26 139 20.9 0.0 0.00 0.00 0.00 82 1012.7
20260902132504 26 106 14.5 0.0 0.00 0.00 0.00 82 1013.0
20260902132214 26 165 14.5 0.0 0.00 0.00 0.00 83 1013.0
20260902131504 26 131 0.0 0.0 0.00 0.00 0.00 83 1013.0
20260902131005 26 143 6.4 0.0 0.00 0.00 0.00 84 1012.7
20260902130505 26 47 14.5 0.0 0.00 0.00 0.00 84 1013.0
20260902130005 25 52 6.4 0.0 0.00 0.00 0.00 84 1013.0
20260902125505 25 5 0.0 0.0 0.00 0.00 0.00 85 1012.7
20260902125005 25 104 0.0 0.0 0.00 0.00 0.00 85 1012.7
20260902124505 25 113 0.0 0.0 0.00 0.00 0.00 85 1012.3
20260902124005 25 32 0.0 0.0 0.00 0.00 0.00 85 1012.3
20260902123505 25 166 14.5 0.0 0.00 0.00 0.00 85 1012.3
20260902123213 25 89 6.4 0.0 0.00 0.00 0.00 85 1012.3
20260902122712 25 153 6.4 0.0 0.00 0.00 0.00 85 1012.3
20260902122005 25 174 29.0 0.0 0.00 0.00 0.00 85 1012.3
20260902121505 25 109 0.0 0.0 0.00 0.00 0.00 85 1012.3
20260902121005 25 131 6.4 0.0 0.00 0.00 0.00 85 1012.3
20260902120712 25 58 0.0 0.0 0.00 0.00 0.00 85 1012.3
20260902120005 25 93 0.0 0.0 0.00 0.00 0.00 84 1012.3
20260902115505 25 158 20.9 0.0 0.00 0.00 0.00 85 1012.3
20260902115005 25 124 6.4 0.0 0.00 0.00 0.00 84 1012.3
20260902114505 25 49 0.0 0.0 0.00 0.00 0.00 84 1012.3
20260902114213 25 137 0.0 0.0 0.00 0.00 0.00 84 1012.3
20260902113505 25 79 0.0 0.0 0.00 0.00 0.00 85 1012.3
20260902113005 25 151 6.4 0.0 0.00 0.00 0.00 84 1012.3
20260902112505 25 144 20.9 0.0 0.00 0.00 0.00 84 1012.3
20260902112005 25 179 6.4 0.0 0.00 0.00 0.00 84 1012.3